Middlesboro, KY

5:33 AM CST on November 20, 2019 (GMT -0600)
Middlesboro

Weather History for K1A6 - October, 2019

Change the Weather History Date:

Sunday, October 20, 2019

  Actual Average (KLOZ) Record (KLOZ)
Temperature  
Mean Temperature 59 °F -  
Max Temperature 64 °F 66 °F 82 °F (1963)
Min Temperature 54 °F 40 °F 26 °F (1964)
Degree Days  
Heating Degree Days 6    
Growing Degree Days 9 (Base 50)    
Moisture  
Dew Point 57 °F    
Average Humidity 97    
Maximum Humidity 100    
Minimum Humidity 83    
Precipitation  
Precipitation 0.13 in - - ()
Sea Level Pressure  
Sea Level Pressure 29.93 in    
Wind  
Wind Speed 0 mph (WSW)    
Max Wind Speed 6 mph    
Max Gust Speed -    
Visibility 9 miles    
Events Rain    
Averages and records for this station are not official NWS values.
T = Trace of Precipitation, MM = Missing Value Source: NWS Daily Summary

Daily Weather History Graph

Daily Weather History Graph

Search for Another Location

Airport or City:

Astronomy

Oct. 20, 2019 Rise Set
Actual Time 6:46 AM CDT 5:52 PM CDT
Civil Twilight 6:20 AM CDT 6:18 PM CDT
Nautical Twilight 5:50 AM CDT 6:48 PM CDT
Astronomical Twilight 5:20 AM CDT 7:18 PM CDT
Moon 11:06 PM CDT 1:07 PM CDT
Length of Visible Light 11h 58m
Length of Day
11h 05m
Waning Gibbous, 59% of the Moon is Illuminated
Oct 20
Waning Gibbous
Oct 21
Last Quarter
Oct 27
New
Nov 4
First Quarter
Nov 12
Full

Hourly Weather History & Observations

Time (CDT) Temp. Dew Point Humidity Pressure Visibility Wind Dir Wind Speed Gust Speed Precip Events Conditions
12:15 AM 54.1 °F 54.1 °F 100% 29.85 in 4.0 mi Calm Calm - 0.03 in Rain Heavy Rain
12:55 AM 54.1 °F 54.1 °F 100% 29.84 in 3.0 mi Calm Calm - 0.11 in Rain Rain
1:15 AM 54.1 °F 54.1 °F 100% 29.84 in 7.0 mi Calm Calm - 0.01 in Rain Rain
1:35 AM 54.3 °F 54.3 °F 100% 29.84 in 10.0 mi West 3.5 mph - 0.01 in   Overcast
1:55 AM 54.5 °F 54.5 °F 100% 29.84 in 10.0 mi West 3.5 mph - 0.02 in   Overcast
2:15 AM 54.9 °F 54.9 °F 100% 29.84 in 10.0 mi Calm Calm - N/A   Overcast
2:35 AM 54.7 °F 54.7 °F 100% 29.83 in 10.0 mi Calm Calm - N/A   Overcast
2:55 AM 54.9 °F 54.9 °F 100% 29.83 in 10.0 mi Calm Calm - N/A   Overcast
3:15 AM 54.7 °F 54.7 °F 100% 29.83 in 10.0 mi Calm Calm - N/A   Overcast
3:35 AM 54.7 °F 54.7 °F 100% 29.83 in 10.0 mi Calm Calm - N/A   Overcast
3:55 AM 54.7 °F 54.7 °F 100% 29.83 in 10.0 mi Calm Calm - N/A   Overcast
4:15 AM 54.7 °F 54.7 °F 100% 29.84 in 10.0 mi Calm Calm - N/A   Overcast
4:35 AM 54.7 °F 54.7 °F 100% 29.85 in 10.0 mi Calm Calm - N/A   Overcast
4:55 AM 54.9 °F 54.9 °F 100% 29.85 in 7.0 mi Calm Calm - N/A   Overcast
5:15 AM 54.7 °F 54.7 °F 100% 29.86 in 5.0 mi Calm Calm - N/A   Overcast
5:35 AM 54.7 °F 54.7 °F 100% 29.87 in 5.0 mi Calm Calm - N/A   Overcast
5:55 AM 54.9 °F 54.9 °F 100% 29.87 in 5.0 mi Calm Calm - N/A   Overcast
6:15 AM 54.7 °F 54.7 °F 100% 29.88 in 7.0 mi Calm Calm - N/A   Overcast
6:35 AM 54.9 °F 54.9 °F 100% 29.88 in 5.0 mi Calm Calm - N/A   Overcast
6:55 AM 54.7 °F 54.7 °F 100% 29.88 in 7.0 mi Calm Calm - N/A   Overcast
7:15 AM 54.9 °F 54.9 °F 100% 29.88 in 10.0 mi Calm Calm - N/A   Overcast
7:55 AM 55.6 °F 55.6 °F 100% 29.91 in 10.0 mi Calm Calm - N/A   Overcast
8:15 AM 55.6 °F 55.6 °F 100% 29.92 in 10.0 mi Calm Calm - N/A   Overcast
8:35 AM 55.9 °F 55.9 °F 100% 29.92 in 10.0 mi Calm Calm - N/A   Overcast
8:55 AM 56.5 °F 56.5 °F 100% 29.93 in 5.0 mi Calm Calm - N/A   Overcast
9:15 AM 56.5 °F 56.5 °F 100% 29.94 in 4.0 mi Calm Calm - N/A   Overcast
9:35 AM 56.8 °F 56.8 °F 100% 29.94 in 10.0 mi Calm Calm - N/A   Overcast
9:55 AM 57.2 °F 57.2 °F 100% 29.95 in 10.0 mi Calm Calm - N/A   Overcast
10:15 AM 58.1 °F 58.1 °F 100% 29.95 in 7.0 mi Calm Calm - N/A   Overcast
10:35 AM 58.3 °F 58.3 °F 100% 29.95 in 10.0 mi Calm Calm - N/A   Overcast
10:55 AM 59.2 °F 59.0 °F 99% 29.96 in 10.0 mi Calm Calm - N/A   Overcast
11:15 AM 59.7 °F 58.8 °F 97% 29.96 in 10.0 mi Calm Calm - N/A   Overcast
11:35 AM 61.0 °F 59.4 °F 94% 29.96 in 10.0 mi Calm Calm - N/A   Overcast
11:55 AM 61.9 °F 59.5 °F 92% 29.96 in 10.0 mi Calm Calm - N/A   Overcast
12:15 PM 61.9 °F 59.9 °F 93% 29.96 in 10.0 mi Calm Calm - N/A   Overcast
12:35 PM 63.1 °F 60.1 °F 90% 29.95 in 10.0 mi Calm Calm - N/A   Overcast
12:55 PM 63.1 °F 59.4 °F 87% 29.95 in 10.0 mi Calm Calm - N/A   Overcast
1:15 PM 63.7 °F 59.7 °F 87% 29.94 in 10.0 mi East 3.5 mph - N/A   Overcast
1:35 PM 63.7 °F 59.5 °F 86% 29.94 in 10.0 mi Calm Calm - N/A   Overcast
1:55 PM 64.4 °F 59.2 °F 83% 29.94 in 10.0 mi Calm Calm - N/A   Overcast
2:15 PM 64.4 °F 59.0 °F 83% 29.94 in 10.0 mi Calm Calm - N/A   Overcast
2:35 PM 63.5 °F 59.7 °F 87% 29.95 in 10.0 mi SSW 5.8 mph - N/A   Overcast
2:55 PM 62.6 °F 59.9 °F 91% 29.95 in 10.0 mi South 3.5 mph - N/A   Overcast
3:15 PM 63.0 °F 59.9 °F 90% 29.95 in 10.0 mi Calm Calm - N/A   Overcast
3:35 PM 63.5 °F 59.7 °F 87% 29.95 in 10.0 mi Calm Calm - N/A   Overcast
3:55 PM 63.5 °F 59.5 °F 87% 29.96 in 10.0 mi Calm Calm - N/A   Overcast
4:15 PM 63.9 °F 59.9 °F 87% 29.95 in 10.0 mi Calm Calm - N/A   Overcast
4:35 PM 63.7 °F 60.4 °F 89% 29.95 in 10.0 mi Calm Calm - N/A   Overcast
4:55 PM 63.5 °F 60.6 °F 90% 29.96 in 10.0 mi Calm Calm - N/A   Overcast
5:15 PM 63.0 °F 60.8 °F 93% 29.96 in 10.0 mi Calm Calm - N/A   Overcast
5:35 PM 63.0 °F 60.8 °F 93% 29.96 in 10.0 mi Calm Calm - N/A   Overcast
5:55 PM 62.6 °F 61.0 °F 94% 29.97 in 10.0 mi Calm Calm - N/A   Overcast
6:15 PM 62.6 °F 61.5 °F 96% 29.97 in 10.0 mi Calm Calm - N/A   Overcast
6:35 PM 62.1 °F 62.1 °F 100% 29.98 in 10.0 mi Calm Calm - N/A   Overcast
6:55 PM 61.2 °F 61.2 °F 100% 29.98 in 10.0 mi Calm Calm - N/A   Overcast
7:15 PM 60.1 °F 60.1 °F 100% 29.99 in 10.0 mi WSW 4.6 mph - N/A   Overcast
7:35 PM 58.6 °F 58.6 °F 100% 30.00 in 10.0 mi Calm Calm - N/A   Overcast
7:55 PM 57.4 °F 57.4 °F 100% 30.00 in 10.0 mi West 4.6 mph - N/A   Scattered Clouds
8:15 PM 57.2 °F 57.2 °F 100% 30.00 in 10.0 mi West 3.5 mph - N/A   Scattered Clouds
8:35 PM 55.8 °F 55.8 °F 100% 30.00 in 10.0 mi Calm Calm - N/A   Scattered Clouds
8:55 PM 55.0 °F 55.0 °F 100% 30.00 in 10.0 mi Calm Calm - N/A   Mostly Cloudy
9:15 PM 54.5 °F 54.5 °F 100% 30.01 in 10.0 mi Calm Calm - N/A   Overcast
9:35 PM 54.7 °F 54.7 °F 100% 30.02 in 10.0 mi Calm Calm - N/A   Mostly Cloudy
9:55 PM 55.2 °F 55.2 °F 100% 30.02 in 10.0 mi Calm Calm - N/A   Overcast
10:15 PM 55.6 °F 55.6 °F 100% 30.02 in 10.0 mi Calm Calm - N/A   Overcast
10:35 PM 55.9 °F 55.9 °F 100% 30.02 in 10.0 mi Calm Calm - N/A   Overcast
10:55 PM 55.9 °F 55.9 °F 100% 30.01 in 10.0 mi Calm Calm - N/A   Overcast
11:15 PM 56.3 °F 56.3 °F 100% 30.01 in 10.0 mi Calm Calm - N/A   Overcast
11:35 PM 56.1 °F 56.1 °F 100% 30.02 in 10.0 mi Calm Calm - N/A   Overcast
11:55 PM 55.6 °F 55.6 °F 100% 30.02 in 10.0 mi Calm Calm - N/A   Overcast